W4RJF Weather Reports


time (UTC)temp
C
wind
direction
speed
KPH
gust
KPH
rain 1hr
cm
rain 24hr
cm
rain mn
cm
humidity
%
barometer
mb
20260505212510 26 200 3.2 12.9 0.00 0.00 0.00 42 1014.6
20260505212012 26 202 3.2 9.7 0.00 0.00 0.00 42 1014.6
20260505211521 26 192 3.2 12.9 0.00 0.00 0.00 42 1014.8
20260505211005 26 185 4.8 12.9 0.00 0.00 0.00 41 1014.7
20260505210510 26 194 3.2 12.9 0.00 0.00 0.00 39 1014.6
20260505205507 27 200 3.2 9.7 0.00 0.00 0.00 40 1014.9
20260505205007 27 246 3.2 9.7 0.00 0.00 0.00 40 1014.9
20260505204009 27 165 4.8 9.7 0.00 0.00 0.00 40 1014.8
20260505203510 26 190 3.2 8.0 0.00 0.00 0.00 41 1014.9
20260505203029 26 214 3.2 8.0 0.00 0.00 0.00 41 1014.9
20260505202509 26 197 3.2 14.5 0.00 0.00 0.00 42 1014.8
20260505202012 27 181 3.2 14.5 0.00 0.00 0.00 40 1014.8
20260505201532 27 215 3.2 14.5 0.00 0.00 0.00 40 1014.8
20260505201009 27 167 1.6 11.3 0.00 0.00 0.00 40 1015.0
20260505200508 27 245 3.2 11.3 0.00 0.00 0.00 40 1015.0
20260505200019 27 180 1.6 11.3 0.00 0.00 0.00 41 1015.1
20260505195511 27 175 1.6 9.7 0.00 0.00 0.00 41 1015.1
20260505195012 27 153 3.2 12.9 0.00 0.00 0.00 40 1015.3
20260505194008 26 203 1.6 9.7 0.00 0.00 0.00 42 1015.5
20260505193023 27 215 0.0 8.0 0.00 0.00 0.00 41 1015.6
20260505192511 27 211 1.6 9.7 0.00 0.00 0.00 41 1015.6
20260505192008 27 184 4.8 9.7 0.00 0.00 0.00 41 1015.7
20260505191526 27 251 1.6 8.0 0.00 0.00 0.00 41 1015.8
20260505191009 26 190 1.6 6.4 0.00 0.00 0.00 42 1015.9
20260505190507 26 179 1.6 6.4 0.00 0.00 0.00 1016.1
20260505190037 27 168 3.2 6.4 0.00 0.00 0.00 42 1016.0
20260505185516 27 150 0.0 8.0 0.00 0.00 0.00 42 1016.1
20260505185007 27 181 3.2 9.7 0.00 0.00 0.00 42 1016.2
20260505184526 26 192 3.2 9.7 0.00 0.00 0.00 42 1016.2
20260505184009 27 327 1.6 9.7 0.00 0.00 0.00 40 1016.3
20260505183502 27 177 3.2 9.7 0.00 0.00 0.00 41 1016.4
20260505182502 26 178 1.6 8.0 0.00 0.00 0.00 43 1016.6
20260505182003 26 181 1.6 6.4 0.00 0.00 0.00 43 1016.6
20260505181509 26 164 1.6 6.4 0.00 0.00 0.00 43 1016.5
20260505181012 26 240 0.0 6.4 0.00 0.00 0.00 45 1016.6
20260505180504 26 184 1.6 9.7 0.00 0.00 0.00 42 1016.6
20260505180021 26 197 3.2 9.7 0.00 0.00 0.00 42 1016.7
20260505175504 26 176 3.2 9.7 0.00 0.00 0.00 43 1016.6
20260505175005 25 286 1.6 9.7 0.00 0.00 0.00 44 1016.6
20260505174521 25 261 1.6 9.7 0.00 0.00 0.00 48 1016.6
20260505174009 25 254 1.6 9.7 0.00 0.00 0.00 45 1016.7
20260505173507 25 193 0.0 9.7 0.00 0.00 0.00 47 1016.8
20260505173022 25 261 1.6 9.7 0.00 0.00 0.00 45 1016.8
20260505172502 25 178 3.2 12.9 0.00 0.00 0.00 46 1016.8
20260505172002 25 182 1.6 12.9 0.00 0.00 0.00 46 1016.9
20260505171004 24 209 4.8 8.0 0.00 0.00 0.00 47 1017.0
20260505170503 24 207 0.0 4.8 0.00 0.00 0.00 51 1016.9
20260505165504 24 162 1.6 6.4 0.00 0.00 0.00 51 1017.1
20260505165004 23 201 1.6 6.4 0.00 0.00 0.00 53 1017.3
20260505164520 23 175 3.2 6.4 0.00 0.00 0.00 52 1017.4
20260505164007 23 212 3.2 6.4 0.00 0.00 0.00 51 1017.3
20260505163508 23 209 3.2 8.0 0.00 0.00 0.00 52 1017.3
20260505163020 23 184 3.2 8.0 0.00 0.00 0.00 53 1017.4
20260505162508 23 267 1.6 4.8 0.00 0.00 0.00 53 1017.4
20260505162012 23 240 0.0 4.8 0.00 0.00 0.00 55 1017.4
20260505161524 23 235 0.0 9.7 0.00 0.00 0.00 55 1017.4
20260505161003 22 227 0.0 9.7 0.00 0.00 0.00 56 1017.4
20260505160503 23 198 3.2 8.0 0.00 0.00 0.00 54 1017.5
20260505153023 22 272 0.0 4.8 0.00 0.00 0.00 58 1017.8
20260505152508 22 289 1.6 4.8 0.00 0.00 0.00 58 1017.7
20260505152013 22 173 1.6 4.8 0.00 0.00 0.00 58 1017.8
20260505151528 21 279 1.6 4.8 0.00 0.00 0.00 59 1017.8
20260505151007 21 282 0.0 8.0 0.00 0.00 0.00 60 1017.9
20260505150507 21 191 3.2 8.0 0.00 0.00 0.00 60 1018.0
20260505140510 19 218 0.0 3.2 0.00 0.00 0.00 68 1017.7
20260505125011 16 209 0.0 3.2 0.00 0.00 0.00 76 1017.8
20260505124525 15 210 0.0 3.2 0.00 0.00 0.00 76 1017.8
20260505124009 15 248 0.0 3.2 0.00 0.00 0.00 78 1017.7
20260505123506 15 191 0.0 3.2 0.00 0.00 0.00 78 1017.8
20260505122506 14 184 0.0 0.0 0.00 0.00 0.00 81 1017.8
20260505122008 13 175 0.0 0.0 0.00 0.00 0.00 81 1017.7
20260505121009 13 175 0.0 0.0 0.00 0.00 0.00 82 1017.7
20260505120507 13 163 0.0 0.0 0.00 0.00 0.00 84 1017.7
20260505120035 12 163 0.0 3.2 0.00 0.00 0.00 84 1017.8
20260505115510 12 163 0.0 3.2 0.00 0.00 0.00 84 1017.7
20260505115009 12 153 0.0 0.0 0.00 0.00 0.00 84 1017.6
20260505114523 12 84 0.0 0.0 0.00 0.00 0.00 85 1017.6
20260505114008 12 84 0.0 0.0 0.00 0.00 0.00 86 1017.6
20260505113511 11 84 0.0 0.0 0.00 0.00 0.00 87 1017.5
20260505113025 11 84 0.0 0.0 0.00 0.00 0.00 88 1017.5
20260505112508 11 184 0.0 0.0 0.00 0.00 0.00 88 1017.4
20260505112006 11 184 0.0 0.0 0.00 0.00 0.00 88 1017.4
20260505111008 11 184 0.0 0.0 0.00 0.00 0.00 89 1017.2
20260505110506 10 184 0.0 0.0 0.00 0.00 0.00 89 1017.2
20260505102010 10 184 0.0 0.0 0.00 0.00 0.00 87 1016.7
20260505101011 10 184 0.0 0.0 0.00 0.00 0.00 87 1016.6
20260505100509 10 184 0.0 0.0 0.00 0.00 0.00 87 1016.4
20260505100029 10 184 0.0 0.0 0.00 0.00 0.00 87 1016.4
20260505095507 10 184 0.0 0.0 0.00 0.00 0.00 86 1016.4
20260505095008 10 184 0.0 0.0 0.00 0.00 0.00 86 1016.4
20260505094506 11 184 0.0 0.0 0.00 0.00 0.00 86 1016.4
20260505094004 11 184 0.0 0.0 0.00 0.00 0.00 86 1016.4
20260505093504 11 184 0.0 0.0 0.00 0.00 0.00 86 1016.4
20260505093012 11 184 0.0 0.0 0.00 0.00 0.00 86 1016.4
20260505092504 11 184 0.0 0.0 0.00 0.00 0.00 86 1016.3
20260505092004 11 184 0.0 0.0 0.00 0.00 0.00 85 1016.4
20260505091519 11 184 0.0 0.0 0.00 0.00 0.00 85 1016.3
20260505091004 11 184 0.0 0.0 0.00 0.00 0.00 84 1016.3
20260505090506 11 184 0.0 0.0 0.00 0.00 0.00 84 1016.4
20260505090019 11 184 0.0 0.0 0.00 0.00 0.00 83 1016.4
20260505085507 11 184 0.0 0.0 0.00 0.00 0.00 83 1016.2
20260505085009 11 184 0.0 0.0 0.00 0.00 0.00 83 1016.3
20260505084540 11 184 0.0 0.0 0.00 0.00 0.00 82 1016.2
20260505084003 11 184 0.0 0.0 0.00 0.00 0.00 81 1016.3
20260505083504 12 184 0.0 0.0 0.00 0.00 0.00 80 1016.3
20260505083017 12 184 0.0 0.0 0.00 0.00 0.00 80 1016.3
20260505082506 12 184 0.0 0.0 0.00 0.00 0.00 80 1016.2
20260505082004 12 184 0.0 0.0 0.00 0.00 0.00 80 1016.2
20260505081516 12 184 0.0 0.0 0.00 0.00 0.00 79 1016.1
20260505081009 12 184 0.0 0.0 0.00 0.00 0.00 79 1016.0
20260505080504 12 184 0.0 0.0 0.00 0.00 0.00 78 1015.9
20260505080027 13 184 0.0 0.0 0.00 0.00 0.00 77 1015.9
20260505075505 13 184 0.0 0.0 0.00 0.00 0.00 77 1015.9
20260505075007 13 184 0.0 0.0 0.00 0.00 0.00 77 1015.9
20260505074523 13 184 0.0 0.0 0.00 0.00 0.00 77 1015.9
20260505074007 13 184 0.0 0.0 0.00 0.00 0.00 76 1015.9
20260505073508 13 184 0.0 0.0 0.00 0.00 0.00 76 1015.9
20260505073035 13 184 0.0 0.0 0.00 0.00 0.00 76 1016.0
20260505072503 13 184 0.0 0.0 0.00 0.00 0.00 77 1015.9
20260505072004 13 184 0.0 0.0 0.00 0.00 0.00 75 1016.0
20260505071509 13 184 0.0 3.2 0.00 0.00 0.00 75 1015.9
20260505071005 13 185 0.0 3.2 0.00 0.00 0.00 74 1015.8
20260505070505 13 185 0.0 0.0 0.00 0.00 0.00 74 1015.8
20260505070016 13 185 0.0 0.0 0.00 0.00 0.00 74 1015.8
20260505065504 13 185 0.0 0.0 0.00 0.00 0.00 74 1015.8
20260505065003 13 185 0.0 0.0 0.00 0.00 0.00 73 1015.8
20260505064519 13 183 0.0 0.0 0.00 0.00 0.00 73 1015.9
20260505064007 14 183 0.0 0.0 0.00 0.00 0.00 73 1015.9
20260505063508 14 183 0.0 0.0 0.00 0.00 0.00 72 1015.9
20260505063029 14 183 0.0 0.0 0.00 0.00 0.00 72 1015.8
20260505062509 14 182 0.0 0.0 0.00 0.00 0.00 71 1015.8
20260505062009 14 182 0.0 3.2 0.00 0.00 0.00 71 1015.9
20260505061517 15 182 0.0 3.2 0.00 0.00 0.00 71 1015.8
20260505061003 15 179 0.0 3.2 0.00 0.00 0.00 71 1015.9
20260505060503 15 188 0.0 3.2 0.00 0.00 0.00 71 1015.9
20260505060011 15 188 0.0 3.2 0.00 0.00 0.00 70 1015.9
20260505055505 15 190 0.0 3.2 0.00 0.00 0.00 70 1015.9
20260505055005 15 182 0.0 3.2 0.00 0.00 0.00 70 1015.9
20260505054518 15 202 0.0 3.2 0.00 0.00 0.00 70 1016.0
20260505054012 15 196 0.0 3.2 0.00 0.00 0.00 69 1016.0
20260505053508 15 197 0.0 3.2 0.00 0.00 0.00 69 1016.1
20260505053023 15 184 1.6 3.2 0.00 0.00 0.00 69 1016.1
20260505052508 15 192 0.0 3.2 0.00 0.00 0.00 68 1016.2
20260505052008 15 202 0.0 3.2 0.00 0.00 0.00 68 1016.2
20260505051524 15 202 0.0 3.2 0.00 0.00 0.00 68 1016.2
20260505051010 16 194 0.0 3.2 0.00 0.00 0.00 67 1016.3
20260505050507 16 198 0.0 3.2 0.00 0.00 0.00 67 1016.3
20260505041522 16 190 0.0 3.2 0.00 0.00 0.00 65 1016.2
20260505041009 16 192 0.0 4.8 0.00 0.00 0.00 65 1016.2
20260505040512 16 192 0.0 4.8 0.00 0.00 0.00 64 1016.3
20260505040027 17 219 0.0 4.8 0.00 0.00 0.00 64 1016.3
20260505035509 17 188 1.6 6.4 0.00 0.00 0.00 63 1016.3
20260505035002 17 186 3.2 6.4 0.00 0.00 0.00 63 1016.2
20260505034516 17 188 1.6 4.8 0.00 0.00 0.00 63 1016.2
20260505034008 17 192 1.6 4.8 0.00 0.00 0.00 62 1016.1
20260505033505 17 192 1.6 6.4 0.00 0.00 0.00 62 1016.1
20260505033019 17 219 1.6 8.0 0.00 0.00 0.00 62 1016.1
20260505032510 17 198 1.6 8.0 0.00 0.00 0.00 61 1016.1
20260505032011 17 199 3.2 8.0 0.00 0.00 0.00 61 1016.0
20260505031523 17 190 1.6 11.3 0.00 0.00 0.00 61 1016.1
20260505031007 18 194 1.6 11.3 0.00 0.00 0.00 60 1016.1
20260505030509 18 201 4.8 11.3 0.00 0.00 0.00 60 1016.1
20260505030024 18 203 1.6 6.4 0.00 0.00 0.00 60 1016.1
20260505025515 18 188 3.2 8.0 0.00 0.00 0.00 60 1016.1
20260505025012 18 186 1.6 8.0 0.00 0.00 0.00 60 1016.0
20260505024527 18 182 1.6 8.0 0.00 0.00 0.00 60 1016.0
20260505024007 18 171 1.6 8.0 0.00 0.00 0.00 60 1016.0
20260505023505 18 200 0.0 8.0 0.00 0.00 0.00 60 1016.0
20260505023021 18 207 1.6 8.0 0.00 0.00 0.00 60 1015.9
20260505022506 18 205 3.2 8.0 0.00 0.00 0.00 59 1015.9
20260505022005 18 214 1.6 9.7 0.00 0.00 0.00 59 1015.9
20260505021521 18 196 1.6 9.7 0.00 0.00 0.00 59 1015.9
20260505021008 19 219 1.6 9.7 0.00 0.00 0.00 59 1015.8
20260505020506 19 178 1.6 6.4 0.00 0.00 0.00 59 1015.8
20260505020030 19 191 1.6 6.4 0.00 0.00 0.00 58 1015.8
20260505015509 19 180 1.6 8.0 0.00 0.00 0.00 58 1015.7
20260505015003 19 227 1.6 9.7 0.00 0.00 0.00 58 1015.7
20260505014522 19 198 1.6 9.7 0.00 0.00 0.00 58 1015.6
20260505014007 20 235 1.6 8.0 0.00 0.00 0.00 57 1015.6
20260505013502 20 199 3.2 8.0 0.00 0.00 0.00 56 1015.6
20260505013015 20 182 3.2 8.0 0.00 0.00 0.00 55 1015.3
20260505012503 20 208 1.6 4.8 0.00 0.00 0.00 52 1015.2
20260505012006 20 194 1.6 4.8 0.00 0.00 0.00 50 1015.1
20260505011530 20 180 1.6 11.3 0.00 0.00 0.00 48 1015.1
20260505011007 20 198 0.0 11.3 0.00 0.00 0.00 48 1015.0
20260505010506 20 205 1.6 3.2 0.00 0.00 0.00 47 1015.0
20260505010022 20 191 0.0 3.2 0.00 0.00 0.00 47 1014.9
20260505005508 20 201 0.0 3.2 0.00 0.00 0.00 47 1014.7
20260505005008 20 193 0.0 3.2 0.00 0.00 0.00 46 1014.6
20260505004538 20 203 0.0 3.2 0.00 0.00 0.00 45 1014.5
20260505004003 20 192 1.6 3.2 0.00 0.00 0.00 45 1014.5
20260505003505 20 203 0.0 3.2 0.00 0.00 0.00 45 1014.4
20260505003018 20 195 0.0 3.2 0.00 0.00 0.00 44 1014.3
20260505002505 20 196 0.0 3.2 0.00 0.00 0.00 44 1014.3
20260505002005 21 193 0.0 3.2 0.00 0.00 0.00 46 1014.4
20260505001520 21 193 0.0 3.2 0.00 0.00 0.00 43 1014.4
20260505001008 21 202 0.0 0.0 0.00 0.00 0.00 42 1014.5
20260505000506 21 202 0.0 1.6 0.00 0.00 0.00 42 1014.4
20260505000029 21 202 0.0 1.6 0.00 0.00 0.00 42 1014.4
20260504235506 22 202 0.0 3.2 0.00 0.00 0.00 41 1014.4
20260504235008 22 198 0.0 3.2 0.00 0.00 0.00 41 1014.3
20260504234523 22 198 0.0 3.2 0.00 0.00 0.00 40 1014.3
20260504234007 22 191 0.0 4.8 0.00 0.00 0.00 39 1014.1
20260504233510 22 196 0.0 4.8 0.00 0.00 0.00 39 1014.1
20260504233008 22 188 1.6 3.2 0.00 0.00 0.00 39 1014.1
20260504232507 23 197 1.6 4.8 0.00 0.00 0.00 39 1014.1
20260504232005 23 202 0.0 6.4 0.00 0.00 0.00 39 1014.0
20260504231517 23 190 1.6 6.4 0.00 0.00 0.00 38 1014.0
20260504231005 23 194 1.6 3.2 0.00 0.00 0.00 38 1014.0
20260504230509 23 197 0.0 6.4 0.00 0.00 0.00 38 1014.0
20260504230020 23 198 0.0 6.4 0.00 0.00 0.00 37 1013.9
20260504225507 23 260 0.0 6.4 0.00 0.00 0.00 38 1013.9
20260504225008 23 198 0.0 6.4 0.00 0.00 0.00 37 1013.9
20260504224521 23 198 3.2 6.4 0.00 0.00 0.00 36 1013.9
20260504224007 24 188 1.6 6.4 0.00 0.00 0.00 36 1013.9
20260504223029 24 206 1.6 4.8 0.00 0.00 0.00 35 1013.9
20260504222512 24 200 1.6 4.8 0.00 0.00 0.00 35 1013.8
20260504222009 24 201 0.0 6.4 0.00 0.00 0.00 36 1013.9
20260504221515 25 186 1.6 6.4 0.00 0.00 0.00 35 1013.8
20260504221005 25 223 0.0 6.4 0.00 0.00 0.00 35 1013.8
20260504220504 25 201 0.0 6.4 0.00 0.00 0.00 36 1013.8
20260504220016 25 197 1.6 6.4 0.00 0.00 0.00 35 1013.8
20260504215507 25 214 1.6 6.4 0.00 0.00 0.00 34 1013.9
20260504215009 25 198 0.0 4.8 0.00 0.00 0.00 34 1013.9
20260504214523 25 233 0.0 6.4 0.00 0.00 0.00 34 1013.8
20260504214014 25 182 0.0 6.4 0.00 0.00 0.00 33 1013.8
20260504213507 25 195 1.6 4.8 0.00 0.00 0.00 32 1013.8
20260504213027 25 207 1.6 4.8 0.00 0.00 0.00 33 1013.9